Regional Weather Roundup
Issued by NWS Spokane, WA

Home | Current Version | Previous Version | Text Only | Print | Product List | Glossary On
Versions: 1 2 3 4 5 6 7 8 9 10 11 12 13 14 15 16 17 18 19 20 21 22 23 24 25 26 27 28 29 30 31 32 33 34 35 36 37 38 39 40 41 42 43 44 45 46 47 48 49 50
000
NZUS01 KOTX 060510
RWROTX
EASTERN WASHINGTON/NORTHERN IDAHO ROUNDUP
NATIONAL WEATHER SERVICE, SPOKANE WA
1000 PM PDT TUE MAY 05 2015

Note: "fair" indicated few or no clouds below 12,000 feet with no
significant weather and/or obstructions to visibility.

...NORTHEAST WASHINGTON AND NORTHERN IDAHO PANHANDLE...

CITY           SKY/WX    TMP DP  RH WIND       PRES   REMARKS
SPOKANE INTL   PTCLDY    48  20  32 SW6       29.94R
SPOKANE DOWNTO PTCLDY    46  27  47 N3        29.94S
COEUR D ALENE  PTCLDY    43  21  42 S6        29.95S
DEER PARK      PTCLDY    43  25  49 NW3       29.94R
SANDPOINT      PTCLDY    41  32  70 CALM      29.93R
BONNERS FERRY  MOCLDY    46  32  57 N6        29.94R

...SOUTHEAST WASHINGTON AND SOUTHERN IDAHO PANHANDLE...

CITY           SKY/WX    TMP DP  RH WIND       PRES   REMARKS
WALLA WALLA    MOCLDY    54  31  41 S7        29.99R
PULLMAN/MOSCOW PTCLDY    47  29  49 W3        29.98R
LEWISTON       PTCLDY    57  27  31 NW3       29.96R
LOWELL           N/A     47  38  71 CALM      29.97R

...COLUMBIA BASIN...

CITY           SKY/WX    TMP DP  RH WIND       PRES   REMARKS
EPHRATA        MOCLDY    54  25  32 NW13      29.95R
MOSES LAKE     MOCLDY    51  30  44 NW7       29.96S
TRI CITIES     PTCLDY    53  31  42 NW12      30.00R
HERMISTON      PTCLDY    51  33  50 SW10      30.01R
PENDLETON      CLOUDY    51  31  46 W16       29.99R

...EAST SLOPES CASCADES...

CITY           SKY/WX    TMP DP  RH WIND       PRES   REMARKS
THE DALLES     CLEAR     50  39  66 NW7       30.06R
YAKIMA         CLEAR     50  30  46 NW10      30.01R
ELLENSBURG     PTCLDY    45  33  63 NW16      30.00R
WENATCHEE      MOCLDY    51  28  41 W18       29.99R
OMAK           MOCLDY    46  35  65 NW10      29.97R

...SOUTHERN BRITISH COLUMBIA...

CITY           SKY/WX    TMP DP  RH WIND       PRES   REMARKS
PENTICTON      PTCLDY    43  34  70 VRB2      30.00R
CRANBROOK      MOCLDY    45  28  53 S7        29.92R

...WESTERN MONTANA...

CITY           SKY/WX    TMP DP  RH WIND       PRES   REMARKS
MISSOULA       CLEAR     45  24  43 N9        29.93R

...NEIGHBORING CITIES...

CITY           SKY/WX    TMP DP  RH WIND       PRES   REMARKS
SEATTLE        CLOUDY    47  44  90 E5        30.11R
CALGARY        FLURRIES  39  36  87 N23G32    29.85R



USA.gov is the U.S. government's official web portal to all federal, state and local government web resources and services.